Regional Weather Roundup
Issued by NWS Mt. Holly, NJ

Home | Current Version | Previous Version | Text Only | Print | Product List | Glossary On
Versions: 1 2 3 4 5 6 7 8 9 10 11 12 13 14 15 16 17 18 19 20 21 22 23 24 25 26 27 28 29 30 31 32 33 34 35 36 37 38 39 40 41 42 43 44 45 46 47 48 49 50
000
ASUS41 KPHI 191012
RWRPHI

REGIONAL WEATHER ROUNDUP
NATIONAL WEATHER SERVICE MOUNT HOLLY NJ
600 AM EDT THU OCT 19 2017

NOTE:  "FAIR" INDICATES FEW OR NO CLOUDS BELOW 12,000 FEET WITH NO
SIGNIFICANT WEATHER AND/OR OBSTRUCTIONS TO VISIBILITY.

 * = STATION DOES NOT REPORT PRECIPITATION (E.G. RAIN, SNOW, ETC.)
        OR FOG.

NJZ015>026-191100-
SOUTHERN NEW JERSEY

CITY           SKY/WX    TMP DP  RH WIND       PRES   REMARKS
POMONA         CLEAR     44  41  89 CALM      30.29R
WILDWOOD*      PTCLDY    47  46  97 CALM      30.30R
MILLVILLE      PTCLDY    42  42 100 CALM      30.28S
WRIGHTSTOWN    CLEAR     42  40  94 CALM      30.25S
MOUNT HOLLY    CLEAR     42  42 100 CALM      30.28R
TRENTON        CLEAR     46  43  89 CALM      30.27S

$$
NJZ001>014-191100-
NORTHERN NEW JERSEY

CITY           SKY/WX    TMP DP  RH WIND       PRES   REMARKS
SUSSEX         CLEAR     40  40 100 CALM      30.25S
ANDOVER*         N/A     41  40  96 CALM      30.26S
MORRISTOWN     PTCLDY    37  37 100 CALM      30.26S
NEWARK         PTCLDY    51  46  83 SW6       30.26S
TETERBORO      CLEAR     48  45  89 CALM      30.25S
CALDWELL       CLEAR     45  45 100 CALM      30.27R
SOMERVILLE     CLEAR     39  38  96 CALM      30.26R
ALLAIRE*       PTCLDY    49  45  86 MISG        N/A
TOMS RIVER*      N/A     39  37  92 CALM      30.29R

$$
PAZ043-044-047-054-055-060>062-066>071-191100-
EASTERN PENNSYLVANIA

CITY           SKY/WX    TMP DP  RH WIND       PRES   REMARKS
PHILADELPHIA   PTCLDY    52  48  86 S5        30.28S
NORTH PHILA    CLOUDY    48  43  82 CALM      30.29S
BLUE BELL*     CLOUDY    37  37 100 CALM      30.28S
DOYLESTOWN     PTCLDY    46  43  89 CALM      30.26S
QUAKERTOWN*    PTCLDY    39  39 100 CALM      30.27S
PERKASIE*      FAIR      41  41 100 CALM      30.27S FOG
POTTSTOWN      CLEAR     42  42 100 CALM      30.28S
LANCASTER      CLEAR     46  44  93 CALM      30.26S FOG
COATESVILLE    PTCLDY    50  48  93 CALM      30.28S
READING        CLEAR     45  45 100 NW3       30.25S
ALLENTOWN      CLOUDY    41  38  89 CALM      30.26S
MOUNT POCONO   CLOUDY    46  41  82 W7        30.24F
HAZLETON       CLEAR     37  32  81 CALM      30.27F
LEHIGHTON      FOG       37  37 100 CALM      30.28S VSB 1/4
WILKES BARRE   PTCLDY    44  42  93 CALM      30.23F

$$
DEZALL-MDZ008-012-015-019-020-191100-
DELAWARE AND EASTERN MARYLAND

CITY           SKY/WX    TMP DP  RH WIND       PRES   REMARKS
WILMINGTON     PTCLDY    46  45  96 CALM      30.28S
DOVER          CLEAR     49  49 100 S5        30.27S
GEORGETOWN     PTCLDY    45  42  89 CALM      30.30S
EASTON         CLEAR     48  46  93 CALM      30.32R
ABERDEEN       CLEAR     42  42  99 CALM      30.28S
PATUXENT       PTCLDY    50  48  93 SW5       30.28S
OCEAN CITY     CLEAR     43  42  97 CALM      30.30S
WALLOPS ISLAND CLEAR     45  44  97 CALM      30.30S
CAMBRIDGE      CLEAR     45  43  93 CALM      30.29S
SALISBURY      CLEAR     42  41  96 CALM      30.29S

$$
PAZ001-021-NYZ056-072-MDZ011-DCZ001-191100-
OTHER NEARBY LOCATIONS

CITY           SKY/WX    TMP DP  RH WIND       PRES   REMARKS
HARRISBURG     PTCLDY    46  44  93 E6        30.25S
STATE COLLEGE  PTCLDY    43  39  87 SW6       30.22S
WILLIAMSPORT   FOG       44  43  96 N3        30.22F VSB 1/4
BINGHAMTON     CLEAR     50  40  68 S6        30.18S
NEW YORK CITY  CLEAR     56  45  66 W6        30.28S
BALTIMORE      PTCLDY    42  42 100 CALM      30.27S
WASHINGTON DC  CLOUDY    49  47  93 SW6       30.28S

$$



USA.gov is the U.S. government's official web portal to all federal, state and local government web resources and services.